Weather History for Springfield, CO

Change the Weather History Date:

Thursday, February 7, 2013

  Actual Average Record
Temperature  
Mean Temperature 38 °F -  
Max Temperature 51 °F 49 °F 66 °F (1999)
Min Temperature 24 °F 19 °F -2 °F (2003)
Degree Days  
Heating Degree Days 27 31  
Month to date heating degree days 171 220  
Since 1 July heating degree days 3101 3396  
Cooling Degree Days 0 0  
Month to date cooling degree days 0 0  
Year to date cooling degree days 0 0  
Moisture  
Dew Point 19 °F    
Average Humidity 51    
Maximum Humidity 75    
Minimum Humidity 26    
Precipitation  
Precipitation 0.00 in 0.02 in 0.00 in (2014)
Month to date precipitation 0.00 0.13  
Year to date precipitation 0.02 0.50  
Sea Level Pressure  
Sea Level Pressure 30.07 in    
Wind  
Wind Speed 12 mph (NNW)    
Max Wind Speed 28 mph    
Max Gust Speed 36 mph    
T = Trace of Precipitation, MM = Missing Value Source: NWS Daily Summary

Daily Weather History Graph

Daily Weather History Graph

Search for Another Location

Airport:

Trip Planner

Search our weather history database for the weather conditions in past years. The results will help you decide how hot, cold, wet, or windy it might be!

Date:

Astronomy

Feb. 07, 2013 Rise Set
Actual Time 6:47 AM MST 5:21 PM MST
Civil Twilight 6:20 AM MST 5:49 PM MST
Nautical Twilight 5:49 AM MST 6:19 PM MST
Astronomical Twilight 5:19 AM MST 6:50 PM MST
Moon 4:27 AM MST (2/7) 2:50 PM MST (2/7)
Length of Visible Light 11h 28m
Length of Day
10h 34m
Waning Crescent, 8% of the Moon is Illuminated
Feb 7
Waning Crescent
Feb 10
New
Feb 17
First Quarter
Feb 25
Full
Mar 4
Last Quarter

Hourly Weather History & Observations

Time (MST) Temp. Windchill Dew Point Humidity Pressure Visibility Wind Dir Wind Speed Gust Speed Precip Events Conditions
12:56 AM 43.0 °F 34.2 °F 19.0 °F 38% 29.84 in - North 20.7 mph - N/A   Unknown
1:56 AM 39.9 °F 30.8 °F 21.0 °F 47% 29.87 in - North 18.4 mph - N/A   Unknown
2:56 AM 39.9 °F 30.0 °F 23.0 °F 51% 29.88 in - North 21.9 mph - N/A   Unknown
3:56 AM 39.0 °F 29.0 °F 23.0 °F 53% 29.91 in - North 20.7 mph 28.8 mph N/A   Unknown
4:56 AM 37.9 °F 27.9 °F 24.1 °F 57% 29.96 in - North 19.6 mph - N/A   Unknown
5:56 AM 36.0 °F 26.3 °F 28.9 °F 76% 30.03 in - North 16.1 mph - N/A   Unknown
6:56 AM 30.9 °F 20.2 °F 23.0 °F 72% 30.08 in - North 15.0 mph - N/A   Unknown
7:56 AM 34.0 °F 24.6 °F 23.0 °F 64% 30.10 in - North 13.8 mph - N/A   Unknown
8:56 AM 39.0 °F 30.3 °F 25.0 °F 57% 30.12 in - North 16.1 mph - N/A   Unknown
9:56 AM 43.0 °F 35.1 °F 25.0 °F 49% 30.12 in - NNE 17.3 mph - N/A   Unknown
10:56 AM 46.0 °F 39.9 °F 24.1 °F 42% 30.12 in - North 13.8 mph - N/A   Unknown
11:56 AM 48.9 °F - 21.9 °F 35% 30.10 in - NNE 13.8 mph 19.6 mph N/A   Unknown
12:56 PM 50.0 °F - 19.9 °F 31% 30.08 in - NNE 13.8 mph 20.7 mph N/A   Unknown
1:56 PM 51.1 °F - 19.9 °F 29% 30.07 in - NNE 11.5 mph 23.0 mph N/A   Unknown
2:56 PM 51.1 °F - 17.1 °F 26% 30.07 in - NNE 13.8 mph 20.7 mph N/A   Unknown
3:56 PM 50.0 °F - 17.1 °F 27% 30.08 in - North 4.6 mph - N/A   Unknown
4:56 PM 46.9 °F - 17.1 °F 30% 30.11 in - NNW 5.8 mph - N/A   Unknown
5:56 PM 39.9 °F 36.7 °F 16.0 °F 38% 30.15 in - WNW 4.6 mph - N/A   Unknown
6:56 PM 30.9 °F - 12.9 °F 47% 30.20 in - Calm Calm - N/A   Unknown
7:56 PM 26.1 °F 21.9 °F 10.0 °F 51% 30.20 in - West 3.5 mph - N/A   Unknown
8:56 PM 27.0 °F 19.5 °F 10.9 °F 51% 30.19 in - WSW 6.9 mph - N/A   Unknown
9:56 PM 27.0 °F 18.0 °F 10.9 °F 51% 30.17 in - WSW 9.2 mph - N/A   Unknown
10:56 PM 25.0 °F 15.5 °F 12.9 °F 60% 30.17 in - WSW 9.2 mph - N/A   Unknown
11:56 PM 24.1 °F 15.2 °F 12.0 °F 60% 30.16 in - WSW 8.1 mph - N/A   Unknown